Powrót do katalogu

ISIS 2

AktywnyNaukaPO
NORAD 5104·PAYLOAD·🇨🇦 Canada

Wystrzelony Apr 1, 1971 z Vandenberg Space Force Base

Loading…

Następne Przeloty

TLE

Source: Space-Track
1  5104U 71024A   26224.18725913  .00000018  00000-0  38576-4 0  9998
2  5104  88.1670 307.3973 0043017 336.7333  80.4240 12.67885758561846

Śledź ISIS 2 w czasie rzeczywistym z AllMySat

Download on the App Store